Rome Ciampino, Italy

3:41 AM CEST on June 24, 2017 (GMT +0200)
Ciampino

Weather History for LIRA - May, 2013

Change the Weather History Date:

Friday, May 10, 2013

  Actual Average Record
Temperature  
Mean Temperature 65 °F -  
Max Temperature 71 °F 76 °F 82 °F (2015)
Min Temperature 59 °F 54 °F 48 °F (2004)
Growing Degree Days 15 (Base 50)    
Moisture  
Dew Point 60 °F    
Average Humidity 90    
Maximum Humidity 100    
Minimum Humidity 64    
Precipitation  
Precipitation 0.00 in 0.06 in - ()
Sea Level Pressure  
Sea Level Pressure 29.94 in    
Wind  
Wind Speed 3 mph ()    
Max Wind Speed 8 mph    
Max Gust Speed -    
Visibility 5.3 miles    
Events Rain    
Averages and records for this station are not official NWS values.
T = Trace of Precipitation, MM = Missing Value Source: Averaged Metar Reports

Daily Weather History Graph

Daily Weather History Graph

Search for Another Location

Airport or City:

Trip Planner

Search our weather history database for the weather conditions in past years. The results will help you decide how hot, cold, wet, or windy it might be!

Date:

Astronomy

May. 10, 2013 Rise Set
Actual Time 5:55 AM CEST 8:17 PM CEST
Civil Twilight 5:23 AM CEST 8:49 PM CEST
Nautical Twilight 4:45 AM CEST 9:28 PM CEST
Astronomical Twilight 4:02 AM CEST 10:11 PM CEST
Moon 6:07 AM CEST (5/10) 8:52 PM CEST (5/10)
Length of Visible Light 15h 25m
Length of Day
14h 22m
New Moon, 0% of the Moon is Illuminated
May 10
New Moon
May 18
First Quarter
May 25
Full
May 31
Last Quarter
Jun 8
New

Hourly Weather History & Observations

Time (CEST) Temp. Dew Point Humidity Pressure Visibility Wind Dir Wind Speed Gust Speed Precip Events Conditions
12:15 AM 62.6 °F 59.0 °F 88% 29.98 in - South 2.3 mph - N/A   Clear
12:45 AM 62.6 °F 59.0 °F 88% 29.95 in - SSE 1.2 mph - N/A   Clear
1:15 AM 60.8 °F 59.0 °F 94% 29.95 in - Calm Calm - N/A   Clear
1:45 AM 60.8 °F 59.0 °F 94% 29.95 in 5.0 mi Calm Calm - N/A   Scattered Clouds
2:15 AM 59.0 °F 59.0 °F 100% 29.95 in 3.7 mi SW 2.3 mph - N/A   Scattered Clouds
2:45 AM 59.0 °F 59.0 °F 100% 29.95 in 3.7 mi SW 2.3 mph - N/A   Scattered Clouds
3:15 AM 59.0 °F 59.0 °F 100% 29.95 in 3.7 mi SSE 3.5 mph - N/A   Scattered Clouds
3:45 AM 59.0 °F 59.0 °F 100% 29.95 in 3.7 mi SSE 3.5 mph - N/A   Scattered Clouds
4:15 AM 59.0 °F 59.0 °F 100% 29.92 in 3.7 mi East 1.2 mph - N/A   Scattered Clouds
4:45 AM 59.0 °F 59.0 °F 100% 29.92 in 3.7 mi East 1.2 mph - N/A   Scattered Clouds
5:15 AM 60.8 °F 60.8 °F 100% 29.95 in 3.7 mi SSW 2.3 mph - N/A   Scattered Clouds
5:45 AM 59.0 °F 59.0 °F 100% 29.95 in 3.7 mi SSE 3.5 mph - N/A   Scattered Clouds
6:15 AM 59.0 °F 59.0 °F 100% 29.95 in 2.5 mi South 2.3 mph - N/A   Scattered Clouds
6:45 AM 59.0 °F 59.0 °F 100% 29.95 in 3.1 mi SSE 2.3 mph - N/A   Scattered Clouds
7:15 AM 60.8 °F 60.8 °F 100% 29.95 in 3.1 mi SSW 1.2 mph - N/A   Scattered Clouds
7:45 AM 60.8 °F 60.8 °F 100% 29.95 in 5.0 mi East 3.5 mph - N/A   Mostly Cloudy
8:15 AM 60.8 °F 60.8 °F 100% 29.95 in 5.0 mi ESE 3.5 mph - N/A   Mostly Cloudy
8:45 AM 62.6 °F 60.8 °F 94% 29.95 in 5.0 mi East 4.6 mph - N/A   Mostly Cloudy
9:15 AM 64.4 °F 60.8 °F 88% 29.95 in 5.0 mi NE 2.3 mph - N/A   Mostly Cloudy
9:45 AM 64.4 °F 59.0 °F 83% 29.95 in 5.6 mi Calm Calm - N/A   Mostly Cloudy
10:15 AM 66.2 °F 60.8 °F 83% 29.95 in 5.6 mi SW 5.8 mph - N/A   Mostly Cloudy
10:45 AM 68.0 °F 62.6 °F 83% 29.95 in 5.6 mi WSW 6.9 mph - N/A   Mostly Cloudy
11:15 AM 68.0 °F 64.4 °F 88% 29.95 in 5.6 mi SW 5.8 mph - N/A   Mostly Cloudy
11:45 AM 66.2 °F 60.8 °F 83% 29.95 in 6.2 mi SSW 6.9 mph - N/A   Mostly Cloudy
12:15 PM 66.2 °F 60.8 °F 83% 29.95 in 6.2 mi SSW 8.1 mph - N/A   Mostly Cloudy
12:45 PM 68.0 °F 60.8 °F 78% 29.95 in 6.2 mi SSW 6.9 mph - N/A   Mostly Cloudy
1:15 PM 68.0 °F 59.0 °F 73% 29.95 in 6.2 mi South 8.1 mph - N/A   Mostly Cloudy
1:45 PM 71.6 °F 60.8 °F 69% 29.95 in 6.2 mi SSW 6.9 mph - N/A   Mostly Cloudy
2:15 PM 71.6 °F 59.0 °F 64% 29.95 in 6.2 mi SW 5.8 mph - N/A   Mostly Cloudy
2:45 PM 68.0 °F 60.8 °F 78% 29.95 in 6.2 mi SW 5.8 mph - N/A   Scattered Clouds
3:15 PM 68.0 °F 62.6 °F 83% 29.95 in 6.2 mi SW 6.9 mph - N/A   Mostly Cloudy
3:45 PM 66.2 °F 62.6 °F 88% 29.95 in 6.2 mi SW 8.1 mph - N/A   Mostly Cloudy
4:15 PM 66.2 °F 60.8 °F 83% 29.95 in 6.2 mi SW 6.9 mph - N/A   Mostly Cloudy
4:45 PM 66.2 °F 60.8 °F 83% 29.95 in 6.2 mi WSW 3.5 mph - N/A   Mostly Cloudy
5:15 PM 66.2 °F 62.6 °F 88% 29.92 in 6.2 mi WSW 6.9 mph - N/A Rain Light Rain
5:45 PM 66.2 °F 62.6 °F 88% 29.92 in 6.2 mi SW 6.9 mph - N/A Rain Light Rain
6:15 PM 66.2 °F 60.8 °F 83% 29.92 in 6.2 mi SW 5.8 mph - N/A   Mostly Cloudy
6:45 PM 66.2 °F 60.8 °F 83% 29.92 in 6.2 mi SW 4.6 mph - N/A   Mostly Cloudy
7:15 PM 66.2 °F 59.0 °F 78% 29.92 in 6.2 mi SW 3.5 mph - N/A   Mostly Cloudy
7:45 PM 64.4 °F 60.8 °F 88% 29.92 in 6.2 mi SW 3.5 mph - N/A   Mostly Cloudy
8:15 PM 64.4 °F 60.8 °F 88% 29.92 in 6.2 mi SSW 2.3 mph - N/A   Mostly Cloudy
8:45 PM 64.4 °F 60.8 °F 88% 29.92 in 6.2 mi South 4.6 mph - N/A   Mostly Cloudy
9:15 PM 64.4 °F 60.8 °F 88% 29.92 in 6.2 mi SSW 3.5 mph - N/A   Mostly Cloudy
9:45 PM 62.6 °F 60.8 °F 94% 29.92 in 6.2 mi West 2.3 mph - N/A   Mostly Cloudy
10:15 PM 62.6 °F 60.8 °F 94% 29.92 in 6.2 mi WSW 3.5 mph - N/A   Mostly Cloudy
10:45 PM 62.6 °F 60.8 °F 94% 29.92 in 6.2 mi South 2.3 mph - N/A   Scattered Clouds
11:15 PM 62.6 °F 60.8 °F 94% 29.95 in 6.2 mi SSW 1.2 mph - N/A   Scattered Clouds
11:45 PM 62.6 °F 62.6 °F 100% 29.95 in 6.2 mi South 4.6 mph - N/A   Mostly Cloudy